Regional Weather Roundup
Issued by NWS

Home | Current Version | Previous Version | Text Only | Print | Product List | Glossary Off
Versions: 1 2 3 4 5 6 7 8 9 10 11 12 13 14 15 16 17 18 19 20 21 22 23 24 25 26 27 28 29 30 31 32 33 34 35 36 37 38 39 40 41 42 43 44 45 46 47 48 49 50

212
ASUS43 KFSD 242310
RWRSD

WEATHER ROUNDUP FOR SOUTH DAKOTA
NATIONAL WEATHER SERVICE SIOUX FALLS SD
600 PM CDT THU MAY 24 2018

NOTE: "FAIR" INDICATES FEW OR NO CLOUDS BELOW 12,000 FEET WITH NO
SIGNIFICANT WEATHER AND/OR OBSTRUCTIONS TO VISIBILITY.


SDZ001>005-009-010-012>017-250000-
NORTHWEST AND NORTH CENTRAL SOUTH DAKOTA

CITY           SKY/WX    TMP DP  RH WIND       PRES   REMARKS
BUFFALO          N/A     82  52  35 W20G28    29.81F
FAITH            N/A     80  55  42 W14       29.87S
MOBRIDGE       MOSUNNY   84  58  40 W9        29.78F
$$

SDZ012>016-024>037-041>051-057-063-072>074-250000-
SOUTHWEST AND SOUTH CENTRAL SOUTH DAKOTA

CITY           SKY/WX    TMP DP  RH WIND       PRES   REMARKS
RAPID CTY ARPT SUNNY     79  55  43 E6        29.91F
PIERRE         SUNNY     83  60  45 NW13G20   29.83S
CUSTER         MOSUNNY   72  45  37 W13G23    30.05F
ELLSWORTH AFB  SUNNY     78  53  40 E7        29.92S
PHILIP         SUNNY     82  54  37 NW3       29.87S
PINE RIDGE     SUNNY     82  51  34 W12       29.94F
SPEARFISH      FAIR      77  48  36 VRB7      29.95F
WINNER         FAIR      83  66  56 S17G25    29.84S
$$

SDZ004>011-016>023-039-040-250000-
NORTHEAST SOUTH DAKOTA

CITY           SKY/WX    TMP DP  RH WIND       PRES   REMARKS
ABERDEEN       MOSUNNY   88  60  38 S20G28    29.77F
WATERTOWN      PTSUNNY   86  65  49 SW15G28   29.81F
BROOKINGS      PTSUNNY   85  62  46 SW17      29.85F
SISSETON         N/A     87  62  43 SW16      29.77F
$$

SDZ017-020-022-023-036>040-048>070-250000-
SOUTHEAST SOUTH DAKOTA

CITY           SKY/WX    TMP DP  RH WIND       PRES   REMARKS
SIOUX FALLS    CLOUDY    80  63  55 S12       29.86F
HURON          CLOUDY    82  66  58 SW18G26   29.82F
CHAMBERLAIN    PTSUNNY   79  69  71 S10       29.85R
MITCHELL       CLOUDY    79  63  57 SW8       29.85S
YANKTON        MOSUNNY   75  57  53 W28G36    29.89R
$$

ABBREVIATIONS USED IN REMARKS
   TC - TEMPERATURE IN CELSIUS
  WCI - WIND CHILL INDEX
   HX - HEAT INDEX
  VSB - VISIBILITY





USA.gov is the U.S. government's official web portal to all federal, state and local government web resources and services.